STARLINK-30082 (57509 NORAD) Tracking and Keplerian Element Data

This shows tracking and keplerian element data for the satellite.

Feedback or suggestion? Click here.




ElementValue
Catalog57509
NameSTARLINK-30082
Epoch Orbit2535
Epoch Day13.23805908
Epoch Year2024
RAAN331.0191
Inclination43.0038
Eccentricity0.0001196
Argument of Perigee280.6102
Mean Anonmoly79.4606
Mean Motion15.02555259
Decay Rate0.00033715
L11 57509U 23113Q 24013.23805908 .00033715 00000+0 24976-2 0 9999
L22 57509 43.0038 331.0191 0001196 280.6102 79.4606 15.02555259 25356



Live tracking and technical data element details for STARLINK-30082 (NORAD 57509). STARLINK-30082 can be tracked NOW for your location showing map with azimuth and elevation plus other details from your city location.







IsCatalogInMostPopularTable: catalog: 57509, numindb: 30
Update: records affected: 1



GetName: 57509 STARLINK-30082

Hit Count: updated at: Thu, 29 Feb 2024 12:42:38 GMT